Regional Weather Roundup
Issued by NWS Cleveland, OH

Home | Current Version | Previous Version | Graphics & Text | Print | Product List | Glossary On
Versions: 1 2 3 4 5 6 7 8 9 10 11 12 13 14 15 16 17 18 19 20 21 22 23 24 25 26 27 28 29 30 31 32 33 34 35 36 37 38 39 40 41 42 43 44 45 46 47 48 49 50
000
ASUS41 KCLE 301610
RWRCLE
OHIO REGIONAL WEATHER ROUNDUP
NATIONAL WEATHER SERVICE WILMINGTON, OH
1200 PM EDT WED JUL 30 2014

NOTE: "FAIR" INDICATES FEW OR NO CLOUDS BELOW 12,000 FEET WITH NO
SIGNIFICANT WEATHER AND/OR OBSTRUCTIONS TO VISIBILITY.

OHZ001>008-015>018-024>027-034-035-043-044-301700-
   NORTHWEST OHIO

CITY           SKY/WX    TMP DP  RH WIND       PRES   REMARKS
DEFIANCE       PTSUNNY   70  57  63 VRB5      30.04R
FINDLAY        PTSUNNY   72  60  66 W5        30.03S
TOLEDO EXPRESS MOSUNNY   72  57  59 CALM      30.02S
TOLEDO METCALF CLOUDY    71  57  61 VRB7      30.03S
LIMA           CLOUDY    70  62  76 W9        30.05R
$$

OHZ009>014-019>023-028>033-038-089-301700-
   NORTHEAST OHIO

CITY           SKY/WX    TMP DP  RH WIND       PRES   REMARKS
CLE-HOPKINS    CLOUDY    67  59  75 SW8       30.05R
CLE-LAKEFRONT  PTSUNNY   69  58  67 SW8       30.02R
CUY CO. ARPT   PTSUNNY   70  61  73 W12       30.03S
LORAIN-ELYRIA  CLOUDY    71  58  63 W5        30.04S
ASHTABULA      PTSUNNY   67  60  78 SW9       30.03R
AKRON-CANTON   CLOUDY    69  55  60 W6        30.05S
WOOSTER        CLOUDY    65  58  78 SW8       30.06S
MANSFIELD      CLOUDY    63  58  83 S6        30.06S
YOUNGSTOWN     CLOUDY    69  56  62 SW10      30.04R
$$

OHZ042-051>053-060>062-070>072-077>081-301700-
  SOUTHWEST OHIO

CITY           SKY/WX    TMP DP  RH WIND       PRES   REMARKS
CINC-COVINGTON MOSUNNY   74  61  63 SW10      30.09S
CINC-LUNKEN    MOSUNNY   76  59  55 W8G17     30.08S
HAMILTON       MOSUNNY   76  63  64 VRB6      30.08R
DAYTON         MOSUNNY   75  62  64 W10       30.07S
WRIGHT-PAT AFB SUNNY     73  61  67 SW9       30.06R
DAYTON GENERAL MOSUNNY   73  59  61 SW7       30.06S
WILMINGTON     SUNNY     74  57  55 SW13      30.07S
$$

OHZ036-037-039>041-045>050-054>059-063>069-073>076-082>088-301700-
  CENTRAL AND SOUTHEAST OHIO

CITY           SKY/WX    TMP DP  RH WIND       PRES   REMARKS
COLUMBUS       MOSUNNY   74  58  57 SW9       30.05F
OSU AIRPORT    PTSUNNY   72  59  63 SW9       30.05S
BOLTON FIELD   MOSUNNY   72  61  68 S9        30.06F
RICKENBACK AFB MOSUNNY   73  55  52 SW12      30.06S
NEWARK         MOSUNNY   70  58  65 SW6       30.06S
MARION         PTSUNNY   69  60  73 SW9       30.05S
LANCASTER      MOSUNNY   72  61  68 W8        30.07S
ZANESVILLE     SUNNY     71  57  61 SW8       30.06S
NEW PHILLY     MOSUNNY   69  60  73 W6        30.07R
$$



USA.gov is the U.S. government's official web portal to all federal, state and local government web resources and services.